This demonstration page uses our WeatherBlox Daily Observations layout. Learn more.

Hourly Observations for April 12, 2015

Temp ( °F °C ) Dew Point ( °F °C ) Humidity (%) Winds ( mph kmh ) Pressure ( in mb ) Visibility ( mi km ) Precip ( " mm )
12:15 am 00:15 Clear 54 12.3 42 5.7 64 64 S 17 28 29.8 1009 10 16.0934 0 0
12:35 am 00:35 Clear 54 12.2 41 5.2 63 63 S 14 22 29.8 1009 10 16.0934 0 0
12:55 am 00:55 Clear 53 11.9 41 5.1 63 63 SSE 15 24 29.77 1008 10 16.0934 0 0
1:15 am 01:15 Clear 52 11.2 41 4.8 65 65 SSE 14 22 29.77 1008 10 16.0934 0 0
1:35 am 01:35 Clear 52 10.9 40 4.4 64 64 SSE 13 20 29.77 1008 10 16.0934 0 0
1:55 am 01:55 Clear 50 10.1 40 4.3 68 68 SSE 10 17 29.83 1010 10 16.0934 0 0
2:15 am 02:15 Clear 50 10.2 39 4.1 66 66 S 10 17 29.8 1009 10 16.0934 0 0
2:35 am 02:35 Clear 49 9.6 39 4.1 69 69 S 10 17 29.8 1009 10 16.0934 0 0
2:55 am 02:55 Clear 49 9.5 40 4.2 70 70 S 14 22 29.8 1009 10 16.0934 0 0
3:15 am 03:15 Clear 49 9.2 40 4.2 71 71 S 10 17 29.8 1009 10 16.0934 0 0
3:35 am 03:35 Clear 48 8.7 39 4.1 73 73 S 13 20 29.8 1009 10 16.0934 0 0
3:55 am 03:55 Clear 47 8.3 40 4.2 76 76 S 10 17 29.8 1009 10 16.0934 0 0
4:15 am 04:15 Clear 46 8 40 4.3 78 78 S 9 15 29.8 1009 10 16.0934 0 0
4:35 am 04:35 Clear 46 7.8 40 4.3 79 79 S 12 19 29.8 1009 10 16.0934 0 0
4:55 am 04:55 Clear 46 7.7 40 4.5 80 80 S 8 13 29.8 1009 10 16.0934 0 0
5:15 am 05:15 Clear 45 7.1 39 4.1 81 81 S 7 11 29.77 1008 10 16.0934 0 0
5:35 am 05:35 Partly Cloudy 45 7.2 40 4.5 83 83 S 8 13 29.83 1010 10 16.0934 0 0
5:55 am 05:55 Mostly Cloudy 46 8 41 5 82 82 SSE 9 15 29.77 1008 10 16.0934 0 0
6:15 am 06:15 Partly Cloudy 45 7.3 41 4.8 84 84 SSE 7 11 29.77 1008 10 16.0934 0 0
6:35 am 06:35 Clear 45 7.1 40 4.7 85 85 S 6 9 29.77 1008 10 16.0934 0 0
6:55 am 06:55 Clear 45 7.3 41 4.8 84 84 S 7 11 29.83 1010 10 16.0934 0 0
7:15 am 07:15 Sunny 46 7.7 42 5.5 86 86 S 8 13 29.8 1009 10 16.0934 0 0
7:35 am 07:35 Sunny 45 7.3 41 5 85 85 S 7 11 29.83 1010 10 16.0934 0 0
7:55 am 07:55 Partly Cloudy 46 7.9 42 5.5 85 85 S 7 11 29.8 1009 10 16.0934 0 0
8:15 am 08:15 Mostly Cloudy 48 8.8 43 6 83 83 S 7 11 29.8 1009 10 16.0934 0 0
8:35 am 08:35 Cloudy 49 9.5 44 6.5 82 82 S 7 11 29.8 1009 10 16.0934 0 0
8:55 am 08:55 Cloudy 52 11.1 46 7.5 79 79 SSW 7 11 29.77 1008 10 16.0934 0 0
9:15 am 09:15 Cloudy 55 12.5 47 8.3 76 76 SSW 10 17 29.77 1008 10 16.0934 0 0
9:35 am 09:35 Mostly Cloudy 58 14.6 49 9.2 70 70 SSW 14 22 29.71 1006 10 16.0934 0 0
9:55 am 09:55 Partly Cloudy 61 16.1 49 9.4 65 65 SSW 20 31 29.71 1006 10 16.0934 0 0
10:15 am 10:15 Partly Cloudy 62 16.4 49 9.4 63 63 SSW 21 33 29.71 1006 10 16.0934 0 0
10:35 am 10:35 Partly Cloudy 64 17.8 50 10 60 60 S 24 39 29.68 1005 10 16.0934 0 0
10:55 am 10:55 Sunny 66 18.9 51 10.6 59 59 S 24 39 29.68 1005 10 16.0934 0 0
11:15 am 11:15 Partly Cloudy 68 20 52 10.9 56 56 SSW 22 35 29.68 1005 10 16.0934 0 0
11:35 am 11:35 Partly Cloudy 69 20.3 52 10.9 55 55 SSW 22 35 29.65 1004 10 16.0934 0 0
11:55 am 11:55 Mostly Cloudy 69 20.5 51 10.7 54 54 S 21 33 29.62 1003 10 16.0934 0 0
12:15 pm 12:15 Cloudy 69 20.6 51 10.6 53 53 SSW 20 31 29.62 1003 10 16.0934 0 0
12:35 pm 12:35 Cloudy 69 20.5 52 10.9 54 54 SSW 18 30 29.62 1003 10 16.0934 0 0
12:55 pm 12:55 Cloudy 69 20.3 52 11 55 55 SW 14 22 29.65 1004 10 16.0934 0 0
1:15 pm 13:15 Cloudy 70 21.2 52 10.9 52 52 SW 12 19 29.62 1003 10 16.0934 0 0
1:35 pm 13:35 Cloudy 70 21.2 52 10.9 52 52 SW 12 19 29.62 1003 10 16.0934 0 0
1:55 pm 13:55 Cloudy 70 21.3 51 10.4 50 50 SW 14 22 29.62 1003 10 16.0934 0 0
2:15 pm 14:15 Cloudy 70 21.3 51 10.6 51 51 SW 8 13 29.62 1003 10 16.0934 0 0
2:35 pm 14:35 Cloudy 70 21.3 50 10.2 49 49 SW 12 19 29.62 1003 10 16.0934 0 0
2:55 pm 14:55 Cloudy 71 21.6 50 10.2 48 48 W 12 19 29.62 1003 10 16.0934 0 0
3:15 pm 15:15 Mostly Cloudy 71 21.8 50 10.1 47 47 WSW 9 15 29.62 1003 10 16.0934 0 0
3:35 pm 15:35 Partly Cloudy 73 22.6 49 9.6 44 44 WSW 8 13 29.62 1003 10 16.0934 0 0
3:55 pm 15:55 Mostly Cloudy 72 22.4 49 9.2 43 43 WSW 10 17 29.62 1003 10 16.0934 0 0
4:15 pm 16:15 Mostly Cloudy 73 22.9 49 9.2 42 42 W 9 15 29.62 1003 10 16.0934 0 0
4:35 pm 16:35 Partly Cloudy 73 23 47 8.6 40 40 WNW 8 13 29.62 1003 10 16.0934 0 0
4:55 pm 16:55 Partly Cloudy 73 22.9 47 8.6 40 40 W 5 7 29.62 1003 10 16.0934 0 0
5:15 pm 17:15 Partly Cloudy 74 23.1 47 8.3 39 39 N 3 6 29.62 1003 10 16.0934 0 0
5:35 pm 17:35 Sunny 74 23.4 47 8.4 38 38 N 6 9 29.62 1003 10 16.0934 0 0
5:55 pm 17:55 Sunny 73 22.9 46 7.8 38 38 NNW 3 6 29.65 1004 10 16.0934 0 0
6:15 pm 18:15 Mostly Cloudy 71 21.5 37 2.9 29 29 N 26 43 29.65 1004 10 16.0934 0 0
6:35 pm 18:35 Partly Cloudy with Light Rain 66 18.7 41 5 41 41 N 22 35 29.71 1006 10 16.0934 0 0
6:55 pm 18:55 Partly Cloudy with Light Rain 64 17.9 42 5.8 45 45 N 23 37 29.71 1006 10 16.0934 0 0
7:15 pm 19:15 Sunny 64 17.6 43 6.1 47 47 N 14 22 29.71 1006 10 16.0934 0 0
7:35 pm 19:35 Sunny 65 18.6 33 0.8 30 30 N 21 33 29.74 1007 10 16.0934 0 0
7:55 pm 19:55 Sunny 64 17.8 33 0.5 31 31 NNW 18 30 29.77 1008 10 16.0934 0 0
8:15 pm 20:15 Clear 63 17.1 33 0.3 32 32 N 15 24 29.83 1010 10 16.0934 0 0
8:35 pm 20:35 Mostly Cloudy 62 16.7 32 0 32 32 N 18 30 29.85 1011 10 16.0934 0 0
8:55 pm 20:55 Mostly Cloudy 61 15.9 31 -0.3 33 33 NNW 26 43 29.85 1011 10 16.0934 0 0
9:15 pm 21:15 Partly Cloudy 58 14.5 30 -1 35 35 N 17 28 29.91 1013 10 16.0934 0 0
9:35 pm 21:35 Partly Cloudy 56 13.4 31 -0.6 38 38 N 13 20 29.91 1013 10 16.0934 0 0
9:55 pm 21:55 Clear 55 12.9 32 -0.2 41 41 N 12 19 29.91 1013 10 16.0934 0 0
10:15 pm 22:15 Clear 53 11.6 32 -0.1 45 45 N 12 19 29.91 1013 10 16.0934 0 0
10:35 pm 22:35 Clear 52 11 32 0 47 47 N 15 24 29.94 1014 10 16.0934 0 0
10:55 pm 22:55 Clear 52 11 32 -0.2 46 46 N 17 28 29.97 1015 10 16.0934 0 0
11:15 pm 23:15 Clear 50 10.1 31 -0.5 48 48 N 15 24 30 1016 10 16.0934 0 0
11:35 pm 23:35 Clear 48 8.8 31 -0.5 52 52 NNE 12 19 30.03 1017 10 16.0934 0 0
11:55 pm 23:55 Clear 46 7.9 31 -0.5 56 56 NNE 10 17 30.06 1018 10 16.0934 0 0

Powered by AerisWeather